Home > Weather > Barnstable > Past weeks

Flag for USA Weather for the Past 2 Weeks in Barnstable, Massachusetts, USA

Now
36 °F

Clear.


Feels Like: 33 °F
Forecast: 40 / 53 °F
Wind: 3 mph from Northeast

Location: Barnstable Municipal-Boardman Airport

Current Time: Apr 30, 2016 at 5:37:57 AM

Latest Report: Apr 30, 2016 at 3:56 AM


Visibility: 10 mi

Pressure: 30.16 "Hg

Humidity: 82%

Dew Point: 31 °F

Location of BarnstableLocation

Historic Weather in Barnstable — Graph

°F

Barnstable Temperature Yesterday

Maximum temperature yesterday: 49 °F (at 12:56 PM)
Minimum temperature yesterday: 43 °F (at 5:56 AM)
Average temperature yesterday: 46 °F

High & Low Weather Summary for the Past Weeks

 TemperatureHumidityPressure
High71 °F (Apr 22, 11:56 AM)97% (Apr 23, 8:56 AM)30.42 "Hg (Apr 23, 8:56 AM)
Low31 °F (Apr 18, 4:56 AM)28% (Apr 28, 12:56 PM)29.67 "Hg (Apr 26, 1:00 PM)
Average48 °F66%30.06 "Hg
* Reported Apr 15 3:56 AM — Apr 30 3:56 AM, Barnstable, Weather by CustomWeather, © 2016

Note: Actual official high and low records may vary slightly from our data, if they occured in-between our weather recording intervals... More about our weather records

Advertising

Barnstable Weather History for the Previous 24 Hours

Scroll right to see more
 ConditionsComfort  
Time TempWeatherWind HumidityBarometerVisibility
3:56 AM
Sat, Apr 30
36 °FClear.3 mph82%30.16 "Hg10 mi
2:56 AM39 °FClear.3 mph79%30.17 "Hg10 mi
1:56 AM40 °FOvercast.No wind77%30.17 "Hg10 mi
12:56 AM44 °FClear.No wind68%30.16 "Hg10 mi
11:56 PM
Fri, Apr 29
43 °FClear.5 mph68%30.14 "Hg10 mi
10:56 PM44 °FClear.6 mph65%30.13 "Hg10 mi
9:56 PM43 °FClear.6 mph65%30.13 "Hg10 mi
8:56 PM43 °FClear.6 mph62%30.14 "Hg10 mi
7:56 PM44 °FPassing clouds.7 mph60%30.13 "Hg10 mi
6:56 PM45 °FPassing clouds.7 mph53%30.12 "Hg10 mi
5:56 PM46 °FSunny.8 mph58%30.14 "Hg10 mi
4:56 PM47 °FSunny.8 mph56%30.13 "Hg10 mi
3:56 PM49 °FSunny.10 mph50%30.11 "Hg10 mi
2:56 PM49 °FSunny.12 mph46%30.12 "Hg10 mi
1:56 PM49 °FSunny.12 mph46%30.14 "Hg10 mi
12:56 PM49 °FSunny.10 mph46%30.16 "Hg10 mi
11:56 AM48 °FSunny.10 mph52%30.18 "Hg10 mi
10:56 AM48 °FPassing clouds.9 mph54%30.18 "Hg10 mi
9:56 AM47 °FBroken clouds.10 mph56%30.17 "Hg10 mi
8:56 AM46 °FOvercast.12 mph56%30.16 "Hg10 mi
7:56 AM45 °FMore clouds than sun.7 mph60%30.17 "Hg10 mi
6:56 AM44 °FPartly sunny.6 mph65%30.16 "Hg10 mi
5:56 AM43 °FPassing clouds.3 mph71%30.14 "Hg10 mi
Weather by CustomWeather, © 2016

See weather overviewHow to use our weather pages